{"data":{"norad_id":54129,"epoch":"2026-05-25T04:36:38.399904Z","epoch_age_seconds":48531,"freshness":"FRESH","line1":"1 54129U 22138S   26145.19211111  .00000038  00000+0  62020-4 0  9996","line2":"2 54129  87.9157 309.5507 0002019  86.8034 273.3330 13.19724411173803","mean_motion":13.19724411,"eccentricity":0.0002019,"inclination_deg":87.9157,"raan_deg":309.5507,"arg_perigee_deg":86.8034,"mean_anomaly_deg":273.333,"bstar":6.202e-5,"rev_number":17380,"period_min":109.11368979747,"perigee_km":1184.2456491498,"apogee_km":1187.2999559281,"semimajor_km":7563.909802539,"source":"CELESTRAK","updated_at":"2026-05-25T13:38:22.587744Z"}}